Terug naar catalogus

STARLINK-4686

ActiefCommunicatieVLEO
NORAD 53715·PAYLOAD·🇺🇸 United States

Gelanceerd Sep 5, 2022 vanaf Cape Canaveral Space Force Station

Loading…

Volgende Passages (komende 24 uur)

TLE

VersSource: CelesTrak SupGP

Epoch: Sep 14, 2026, 21:08 UTC

1 53715C 22107R   26257.88104167 -.00012796  00000+0 -37821-3 0  2577
2 53715  53.1573 110.2761 0001351  87.8075 258.3406 15.34384804    19

Volg STARLINK-4686 in realtime met AllMySat

Download on the App Store